GW5150 Weather Reports


Display with metric or nautical units.
time (UTC)temp
F
wind
direction
speed
MPH
gust
MPH
rain 1hr
in
rain 24hr
in
rain mn
in
humidity
%
barometer
mb
20260506202507 81 107 5.0 10.0 0.00 0.00 0.00 86 1010.0
20260506202007 81 148 5.0 11.0 0.00 0.00 0.00 86 1010.1
20260506201519 82 162 4.0 11.0 0.00 0.00 0.00 86 1010.2
20260506201001 81 136 5.0 12.0 0.00 0.00 0.00 87 1010.2
20260506200501 81 117 5.0 12.0 0.00 0.00 0.00 87 1010.2
20260506200007 81 177 6.0 12.0 0.00 0.00 0.00 87 1010.3
20260506195502 81 158 2.0 10.0 0.00 0.00 0.00 87 1010.4
20260506195004 81 158 4.0 11.0 0.00 0.00 0.00 87 1010.5
20260506194510 81 157 5.0 11.0 0.00 0.00 0.00 87 1010.5
20260506194008 81 150 5.0 11.0 0.00 0.00 0.00 87 1010.6
20260506193506 81 128 6.0 12.0 0.00 0.00 0.00 87 1010.7
20260506193012 81 155 7.0 12.0 0.00 0.00 0.00 86 1010.7
20260506192507 82 109 4.0 11.0 0.00 0.00 0.00 87 1010.8
20260506192008 82 130 5.0 11.0 0.00 0.00 0.00 86 1010.7
20260506191516 82 144 5.0 12.0 0.00 0.00 0.00 87 1010.9
20260506191007 81 131 6.0 13.0 0.00 0.00 0.00 87 1011.0
20260506190510 81 167 6.0 16.0 0.00 0.00 0.00 87 1011.0
20260506190023 81 153 7.0 16.0 0.00 0.00 0.00 87 1011.0
20260506185504 81 124 6.0 14.0 0.00 0.00 0.00 87 1010.9
20260506185002 81 121 6.0 14.0 0.00 0.00 0.00 88 1011.0
20260506184503 81 152 6.0 14.0 0.00 0.00 0.00 89 1011.1
20260506184002 80 136 6.0 12.0 0.00 0.00 0.00 90 1011.1
20260506183504 80 136 7.0 12.0 0.00 0.00 0.00 90 1011.0
20260506183012 80 140 6.0 11.0 0.00 0.00 0.00 90 1011.0
20260506182503 80 167 4.0 9.0 0.00 0.00 0.00 90 1011.2
20260506182007 80 165 3.0 9.0 0.00 0.00 0.00 90 1011.2
20260506181514 80 148 4.0 10.0 0.00 0.00 0.00 90 1011.2
20260506181008 79 144 5.0 10.0 0.00 0.00 0.00 90 1011.2
20260506180504 80 114 5.0 9.0 0.00 0.00 0.00 90 1011.2
20260506180018 80 123 5.0 9.0 0.00 0.00 0.00 89 1011.3
20260506175508 80 115 5.0 10.0 0.00 0.00 0.00 89 1011.4
20260506175009 80 119 3.0 11.0 0.00 0.00 0.00 89 1011.3
20260506174521 80 114 5.0 11.0 0.00 0.00 0.00 89 1011.4
20260506174007 80 113 4.0 10.0 0.00 0.00 0.00 88 1011.5
20260506173504 80 138 5.0 12.0 0.00 0.00 0.00 88 1011.7
20260506173008 81 161 4.0 12.0 0.00 0.00 0.00 88 1011.6
20260506172503 81 123 6.0 12.0 0.00 0.00 0.00 89 1011.6
20260506172003 81 110 6.0 11.0 0.00 0.00 0.00 89 1011.5
20260506171518 81 106 2.0 10.0 0.00 0.00 0.00 89 1011.4
20260506171006 80 92 5.0 10.0 0.00 0.00 0.00 89 1011.8
20260506170502 80 104 3.0 10.0 0.00 0.00 0.00 90 1011.6
20260506170017 80 134 4.0 10.0 0.00 0.00 0.00 89 1011.6
20260506165504 80 146 3.0 10.0 0.00 0.00 0.00 90 1011.6
20260506165006 80 98 4.0 9.0 0.00 0.00 0.00 90 1011.4
20260506164522 80 148 4.0 9.0 0.00 0.00 0.00 90 1011.5
20260506164009 80 134 3.0 11.0 0.00 0.00 0.00 91 1011.4
20260506163509 80 164 5.0 11.0 0.00 0.00 0.00 90 1011.5
20260506163024 80 125 3.0 11.0 0.00 0.00 0.00 91 1011.6
20260506162508 80 121 5.0 11.0 0.00 0.00 0.00 91 1011.6
20260506162005 80 138 5.0 10.0 0.00 0.00 0.00 91 1011.7
20260506161510 80 168 2.0 7.0 0.00 0.00 0.00 91 1011.6
20260506161003 79 194 1.0 9.0 0.00 0.00 0.00 91 1011.4
20260506160505 79 134 3.0 11.0 0.00 0.00 0.00 90 1011.3
20260506160019 80 157 5.0 11.0 0.00 0.00 0.00 90 1011.2
20260506155506 80 119 5.0 9.0 0.00 0.00 0.00 90 1011.2
20260506155007 80 135 5.0 9.0 0.00 0.00 0.00 91 1011.1
20260506154523 80 119 3.0 9.0 0.00 0.00 0.00 91 1011.1
20260506154010 80 126 3.0 10.0 0.00 0.00 0.00 91 1011.0
20260506153509 80 148 3.0 10.0 0.00 0.00 0.00 91 1011.0
20260506153022 80 128 4.0 11.0 0.00 0.00 0.00 91 1010.8
20260506152511 79 95 5.0 11.0 0.00 0.00 0.00 91 1010.8
20260506152012 79 159 4.0 11.0 0.00 0.00 0.00 92 1010.8
20260506151526 79 133 5.0 11.0 0.00 0.00 0.00 92 1010.7
20260506151010 79 132 5.0 11.0 0.00 0.00 0.00 92 1010.5
20260506150503 79 117 5.0 10.0 0.00 0.00 0.00 92 1010.6
20260506150012 79 126 4.0 10.0 0.00 0.00 0.00 92 1010.6
20260506145504 79 123 4.0 9.0 0.00 0.00 0.00 92 1010.7
20260506145005 79 226 4.0 9.0 0.00 0.00 0.00 92 1010.7
20260506144517 79 174 5.0 10.0 0.00 0.00 0.00 93 1010.6
20260506144013 78 163 4.0 10.0 0.00 0.00 0.00 93 1010.5
20260506143507 78 153 4.0 9.0 0.00 0.00 0.00 93 1010.4
20260506143021 78 88 4.0 10.0 0.00 0.00 0.00 93 1010.5
20260506142510 78 150 3.0 11.0 0.00 0.00 0.00 93 1010.6
20260506142013 78 125 5.0 11.0 0.00 0.00 0.00 93 1010.5
20260506141524 78 155 6.0 11.0 0.00 0.00 0.00 93 1010.5
20260506141009 78 127 5.0 10.0 0.00 0.00 0.00 93 1010.5
20260506140507 78 179 3.0 9.0 0.00 0.00 0.00 94 1010.6
20260506140030 78 143 3.0 9.0 0.00 0.00 0.00 94 1010.6
20260506135508 78 98 3.0 9.0 0.00 0.00 0.00 94 1010.5
20260506135010 78 114 2.0 9.0 0.00 0.00 0.00 94 1010.6
20260506134515 78 121 3.0 9.0 0.00 0.00 0.00 94 1010.7
20260506134007 78 124 4.0 9.0 0.00 0.00 0.00 94 1010.6
20260506133509 78 152 2.0 8.0 0.00 0.00 0.00 94 1010.6
20260506133019 78 153 3.0 8.0 0.00 0.00 0.00 94 1010.7
20260506132513 78 129 2.0 7.0 0.00 0.00 0.00 94 1010.6
20260506132003 78 113 3.0 9.0 0.00 0.00 0.00 94 1010.7
20260506131509 78 140 4.0 9.0 0.00 0.00 0.00 94 1010.6
20260506131002 78 186 2.0 7.0 0.00 0.00 0.00 94 1010.6
20260506130503 78 157 3.0 9.0 0.00 0.00 0.00 94 1010.6
20260506130007 78 148 3.0 9.0 0.00 0.00 0.00 94 1010.6
20260506125502 78 144 3.0 7.0 0.00 0.00 0.00 94 1010.6
20260506125003 78 138 2.0 9.0 0.00 0.00 0.00 94 1010.5
20260506124508 78 149 2.0 9.0 0.00 0.00 0.00 94 1010.5
20260506124004 78 105 2.0 7.0 0.00 0.00 0.00 94 1010.4
20260506123505 78 106 2.0 7.0 0.00 0.00 0.00 94 1010.6
20260506123014 78 148 3.0 7.0 0.00 0.00 0.00 94 1010.5
20260506122504 78 126 3.0 7.0 0.00 0.00 0.00 94 1010.4
20260506122004 78 120 2.0 9.0 0.00 0.00 0.00 94 1010.3
20260506121505 78 155 3.0 9.0 0.00 0.00 0.00 94 1010.2
20260506121006 77 115 2.0 10.0 0.00 0.00 0.00 94 1010.2
20260506120504 77 126 4.0 10.0 0.00 0.00 0.00 94 1010.0
20260506120008 77 150 2.0 10.0 0.00 0.00 0.00 94 1009.9
20260506115503 77 144 4.0 10.0 0.00 0.00 0.00 94 1010.0
20260506115003 77 142 2.0 9.0 0.00 0.00 0.00 94 1009.9
20260506114506 77 137 1.0 7.0 0.00 0.00 0.00 94 1009.8
20260506114003 77 155 2.0 7.0 0.00 0.00 0.00 94 1009.9
20260506113504 77 166 3.0 7.0 0.00 0.00 0.00 94 1009.9
20260506113015 77 128 2.0 7.0 0.00 0.00 0.00 94 1009.9
20260506112505 77 140 2.0 8.0 0.00 0.00 0.00 94 1009.9
20260506112007 77 153 3.0 8.0 0.00 0.00 0.00 94 1009.9
20260506111517 77 148 2.0 5.0 0.00 0.00 0.00 94 1009.8
20260506111007 77 147 1.0 7.0 0.00 0.00 0.00 94 1009.8
20260506110508 77 141 3.0 7.0 0.00 0.00 0.00 94 1009.6
20260506110024 77 142 1.0 8.0 0.00 0.00 0.00 94 1009.7
20260506105504 77 134 3.0 8.0 0.00 0.00 0.00 94 1009.8
20260506105004 77 150 2.0 6.0 0.00 0.00 0.00 94 1009.7
20260506104503 77 128 2.0 7.0 0.00 0.00 0.00 94 1009.6
20260506104003 77 150 3.0 7.0 0.00 0.00 0.00 94 1009.5
20260506103502 77 139 1.0 6.0 0.00 0.00 0.00 93 1009.5
20260506103011 77 176 2.0 9.0 0.00 0.00 0.00 93 1009.5
20260506102504 77 129 3.0 9.0 0.00 0.00 0.00 93 1009.5
20260506102005 77 144 3.0 9.0 0.00 0.00 0.00 93 1009.4
20260506101515 77 165 3.0 10.0 0.00 0.00 0.00 93 1009.4
20260506101004 77 148 5.0 10.0 0.00 0.00 0.00 93 1009.4
20260506100508 77 139 3.0 9.0 0.00 0.00 0.00 93 1009.5
20260506100020 77 118 3.0 9.0 0.00 0.00 0.00 93 1009.4
20260506095508 77 138 4.0 9.0 0.00 0.00 0.00 93 1009.3
20260506095008 77 152 3.0 8.0 0.00 0.00 0.00 93 1009.4
20260506094531 77 110 3.0 7.0 0.00 0.00 0.00 93 1009.4
20260506094005 77 111 1.0 8.0 0.00 0.00 0.00 93 1009.4
20260506093503 77 123 2.0 8.0 0.00 0.00 0.00 93 1009.3
20260506093008 77 133 3.0 8.0 0.00 0.00 0.00 93 1009.3
20260506092507 77 103 2.0 8.0 0.00 0.00 0.00 93 1009.3
20260506092003 77 138 3.0 7.0 0.00 0.00 0.00 93 1009.4
20260506091512 77 133 2.0 8.0 0.00 0.00 0.00 93 1009.5
20260506091005 77 128 2.0 9.0 0.00 0.00 0.00 93 1009.6
20260506090507 77 152 5.0 10.0 0.00 0.00 0.00 93 1009.6
20260506090017 78 113 4.0 10.0 0.00 0.00 0.00 93 1009.6
20260506085508 78 156 3.0 7.0 0.00 0.00 0.00 92 1009.7
20260506085004 78 150 2.0 8.0 0.00 0.00 0.00 92 1009.7
20260506084523 78 206 3.0 8.0 0.00 0.00 0.00 92 1009.7
20260506084008 78 182 2.0 7.0 0.00 0.00 0.00 92 1009.8
20260506083508 78 171 3.0 7.0 0.00 0.00 0.00 92 1009.9
20260506083025 78 184 3.0 7.0 0.00 0.00 0.00 92 1009.9
20260506082503 78 213 2.0 8.0 0.00 0.00 0.00 92 1009.9
20260506082003 78 180 2.0 8.0 0.00 0.00 0.00 92 1009.8
20260506081508 78 166 3.0 7.0 0.00 0.00 0.00 92 1009.8
20260506081004 78 198 1.0 6.0 0.00 0.00 0.00 92 1009.9
20260506080504 78 145 1.0 10.0 0.00 0.00 0.00 92 1010.0
20260506073511 77 168 3.0 8.0 0.00 0.00 0.00 92 1010.2
20260506073024 77 217 3.0 8.0 0.00 0.00 0.00 92 1010.3
20260506072508 77 188 4.0 9.0 0.00 0.00 0.00 92 1010.4
20260506072011 77 182 4.0 10.0 0.00 0.00 0.00 92 1010.3
20260506071525 77 202 5.0 10.0 0.00 0.00 0.00 92 1010.3
20260506071012 77 173 4.0 10.0 0.00 0.00 0.00 92 1010.2
20260506070505 77 207 4.0 10.0 0.00 0.00 0.00 92 1010.3
20260506062507 77 160 4.0 12.0 0.00 0.00 0.00 92 1010.4
20260506062008 77 178 4.0 11.0 0.00 0.00 0.00 92 1010.4
20260506061524 77 182 3.0 9.0 0.00 0.00 0.00 92 1010.3
20260506061011 77 198 4.0 10.0 0.00 0.00 0.00 92 1010.2
20260506060506 77 185 5.0 10.0 0.00 0.00 0.00 92 1010.2
20260506051010 77 184 6.0 13.0 0.00 0.00 0.00 92 1010.1
20260506050506 77 184 6.0 13.0 0.00 0.00 0.00 92 1010.1
20260506045007 77 191 6.0 16.0 0.00 0.00 0.00 92 1010.3
20260506044526 77 148 7.0 16.0 0.00 0.00 0.00 92 1010.3
20260506044006 77 165 6.0 16.0 0.00 0.00 0.00 91 1010.2
20260506043506 77 186 5.0 12.0 0.00 0.00 0.00 91 1010.1
20260506043014 77 165 4.0 15.0 0.00 0.00 0.00 91 1010.2
20260506042508 77 169 7.0 15.0 0.00 0.00 0.00 91 1010.3
20260506042007 77 206 6.0 15.0 0.00 0.00 0.00 91 1010.2
20260506041511 77 178 8.0 15.0 0.00 0.00 0.00 91 1010.2
20260506041002 77 181 7.0 15.0 0.00 0.00 0.00 91 1010.2
20260506040503 77 160 6.0 15.0 0.00 0.00 0.00 91 1010.3
20260506040008 77 196 5.0 14.0 0.00 0.00 0.00 91 1010.3
20260506035505 77 137 5.0 15.0 0.00 0.00 0.00 91 1010.3
20260506035002 77 162 8.0 15.0 0.00 0.00 0.00 91 1010.3
20260506034510 77 188 8.0 15.0 0.00 0.00 0.00 91 1010.2
20260506034004 77 150 7.0 13.0 0.00 0.00 0.00 91 1010.1
20260506033503 78 184 6.0 16.0 0.00 0.00 0.00 91 1010.2
20260506033012 78 217 7.0 16.0 0.00 0.00 0.00 91 1010.2
20260506032506 78 177 7.0 16.0 0.00 0.00 0.00 91 1010.2
20260506032008 78 185 7.0 16.0 0.00 0.00 0.00 91 1010.2
20260506031518 78 139 7.0 14.0 0.00 0.00 0.00 90 1010.2
20260506031005 78 178 8.0 14.0 0.00 0.00 0.00 90 1010.2
20260506030505 78 139 6.0 14.0 0.00 0.00 0.00 90 1010.1
20260506030009 78 153 7.0 16.0 0.00 0.00 0.00 90 1010.0
20260506025503 78 196 7.0 18.0 0.00 0.00 0.00 90 1010.0
20260506025003 78 172 8.0 18.0 0.00 0.00 0.00 90 1009.9
20260506024517 78 198 9.0 17.0 0.00 0.00 0.00 90 1009.8
20260506024002 78 163 9.0 16.0 0.00 0.00 0.00 90 1009.7
20260506023501 78 176 7.0 14.0 0.00 0.00 0.00 90 1009.6
20260506023012 78 161 6.0 18.0 0.00 0.00 0.00 90 1009.5
20260506022503 78 214 9.0 18.0 0.00 0.00 0.00 90 1009.5
20260506022003 78 159 7.0 16.0 0.00 0.00 0.00 90 1009.5
20260506021514 78 196 7.0 14.0 0.00 0.00 0.00 90 1009.4
20260506021003 78 180 4.0 12.0 0.00 0.00 0.00 90 1009.4
20260506020505 78 188 6.0 12.0 0.00 0.00 0.00 90 1009.3
20260506020020 78 178 6.0 15.0 0.00 0.00 0.00 90 1009.2
20260506015508 78 192 7.0 15.0 0.00 0.00 0.00 90 1009.3
20260506015010 78 172 5.0 12.0 0.00 0.00 0.00 90 1009.2
20260506014504 78 175 5.0 14.0 0.00 0.00 0.00 90 1009.1
20260506014003 78 187 7.0 14.0 0.00 0.00 0.00 90 1009.0
20260506013503 78 153 6.0 16.0 0.00 0.00 0.00 90 1008.9
20260506013009 78 186 7.0 16.0 0.00 0.00 0.00 90 1008.8
20260506012503 78 181 7.0 13.0 0.00 0.00 0.00 90 1008.9
20260506012003 78 170 7.0 13.0 0.00 0.00 0.00 90 1008.9
20260506011511 78 144 6.0 15.0 0.00 0.00 0.00 89 1008.8
20260506011004 78 162 6.0 15.0 0.00 0.00 0.00 89 1008.7
20260506010504 78 190 7.0 14.0 0.00 0.00 0.00 89 1008.6
20260506010017 78 134 6.0 17.0 0.00 0.00 0.00 89 1008.6
20260506005504 79 167 7.0 17.0 0.00 0.00 0.00 89 1008.6
20260506005004 79 171 6.0 13.0 0.00 0.00 0.00 89 1008.5
20260506004522 79 161 6.0 13.0 0.00 0.00 0.00 88 1008.6
20260506004006 79 201 5.0 15.0 0.00 0.00 0.00 88 1008.6
20260506003511 79 200 7.0 15.0 0.00 0.00 0.00 88 1008.6
20260506003022 79 128 6.0 12.0 0.00 0.00 0.00 88 1008.6
20260506002503 79 181 4.0 15.0 0.00 0.00 0.00 87 1008.6
20260506002003 80 158 6.0 15.0 0.00 0.00 0.00 87 1008.7
20260506001510 80 146 5.0 15.0 0.00 0.00 0.00 87 1008.6
20260506001003 80 202 8.0 15.0 0.00 0.00 0.00 87 1008.5
20260506000504 80 191 7.0 13.0 0.00 0.00 0.00 87 1008.5
20260506000014 80 145 8.0 16.0 0.00 0.00 0.00 87 1008.8
20260505235504 80 197 8.0 16.0 0.00 0.00 0.00 86 1008.7
20260505235004 80 188 7.0 14.0 0.00 0.00 0.00 86 1008.7
20260505234527 80 179 7.0 16.0 0.00 0.00 0.00 86 1008.8
20260505234007 80 192 7.0 16.0 0.00 0.00 0.00 86 1008.7
20260505233504 80 190 7.0 18.0 0.00 0.00 0.00 85 1008.7
20260505233021 80 197 8.0 18.0 0.00 0.00 0.00 85 1008.6
20260505232507 81 163 8.0 18.0 0.00 0.00 0.00 84 1008.6
20260505232005 81 188 7.0 15.0 0.00 0.00 0.00 84 1008.7
20260505231525 81 158 6.0 15.0 0.00 0.00 0.00 84 1008.7
20260505231003 81 191 7.0 15.0 0.00 0.00 0.00 84 1008.8
20260505230504 82 165 8.0 15.0 0.00 0.00 0.00 83 1008.7
20260505230025 82 200 6.0 13.0 0.00 0.00 0.00 83 1008.8
20260505225506 82 150 7.0 13.0 0.00 0.00 0.00 82 1008.8
20260505225005 82 191 7.0 17.0 0.00 0.00 0.00 83 1008.9
20260505224514 82 186 7.0 18.0 0.00 0.00 0.00 82 1009.0
20260505224008 82 202 9.0 18.0 0.00 0.00 0.00 82 1008.9
20260505223505 82 213 7.0 17.0 0.00 0.00 0.00 82 1009.0
20260505223020 82 215 7.0 17.0 0.00 0.00 0.00 82 1008.9
20260505222510 82 180 7.0 14.0 0.00 0.00 0.00 82 1009.0
20260505222003 82 119 7.0 14.0 0.00 0.00 0.00 82 1009.0
20260505221504 82 192 6.0 15.0 0.00 0.00 0.00 81 1009.1
20260505221005 83 171 8.0 15.0 0.00 0.00 0.00 81 1009.1
20260505220504 83 198 6.0 13.0 0.00 0.00 0.00 80 1009.2
20260505220007 83 185 7.0 14.0 0.00 0.00 0.00 80 1009.1
20260505215505 83 206 7.0 14.0 0.00 0.00 0.00 80 1009.2
20260505215004 83 206 7.0 15.0 0.00 0.00 0.00 80 1009.2
20260505214514 83 186 7.0 15.0 0.00 0.00 0.00 80 1009.3
20260505214009 83 164 6.0 17.0 0.00 0.00 0.00 80 1009.2
20260505213502 83 177 8.0 17.0 0.00 0.00 0.00 80 1009.3
20260505213002 83 155 6.0 16.0 0.00 0.00 0.00 80 1009.3
20260505212502 83 195 7.0 18.0 0.00 0.00 0.00 80 1009.3
20260505212003 83 193 9.0 17.0 0.00 0.00 0.00 80 1009.4
20260505211504 83 210 9.0 17.0 0.00 0.00 0.00 80 1009.7
20260505211006 83 159 7.0 16.0 0.00 0.00 0.00 80 1009.6
20260505210505 83 184 10.0 16.0 0.00 0.00 0.00 80 1009.8
20260505210008 83 210 9.0 15.0 0.00 0.00 0.00 80 1009.9
20260505205503 83 190 8.0 16.0 0.00 0.00 0.00 80 1009.9
20260505205007 83 209 7.0 16.0 0.00 0.00 0.00 80 1009.9
20260505204511 83 203 9.0 16.0 0.00 0.00 0.00 79 1010.0
20260505204005 83 190 10.0 16.0 0.00 0.00 0.00 79 1010.1
20260505203505 83 207 7.0 16.0 0.00 0.00 0.00 80 1010.1
20260505203019 83 210 5.0 17.0 0.00 0.00 0.00 79 1010.2